Location: Brunnen
(48.6541°N, 10.9920°E)
Time: 17:51:36
(UTC+00:00)

Timation 2 Rocket - Pass Details

Date: 01 June 2020
Orbit: 907 x 1075 km, 70.0° (Epoch: 12 July)

Event Time Altitude Azimuth Distance (km) Brightness Sun altitude
Rises 23:00:53 0° 329° (NNW) 3,710 8.1 -19.1°
Reaches altitude 10° 23:03:30 10° 328° (NNW) 2,733 7.2 -19.1°
Maximum altitude 23:09:50 80° 244° (WSW) 965 3.9 -19.1°
Enters shadow 23:12:55 31° 160° (SSE) 1,568 4.6 -19.1°
